User: anonymous   Login
Location: Lake Superior Provincial Park
(47.3335°N, 84.6162°W)
Time: 02:34:59
(UTC-04:00)
Language:

Cosmos 2333 Rocket - Orbit

View from above orbital plane
View from above orbital plane
View from above satellite
View from above satellite

Ground track
Ground track

The orbit data is extracted from the following two-line orbital elements,

1 24298U 96051B   15090.88866597 -.00000121  00000-0 -39345-4 0  9992
2 24298 070.8503 325.9861 0017852 298.9971 137.6503 14.12429271957696
Epoch (UTC): 31 March 2015 21:19:40
Eccentricity: 0.0017852
inclination: 70.8503°
perigee height: 838 km
apogee height: 864 km
right ascension of ascending node: 325.9861°
argument of perigee: 298.9971°
revolutions per day: 14.12429271
mean anomaly at epoch: 137.6503°
orbit number at epoch: 95769

The dashed part of the orbit path shows where the satellite is in the earth's shadow,  

DLR